Location: Campo Alegre
(10.1673°N, 67.4431°W)
Time: 05:41:38
(UTC+00:00)

SL-24 R/B - RUBIN 2 - Visible Passes

Search period start: 13 July 2024 00:00
Search period end: 23 July 2024 00:00
Orbit: 568 x 1023 km, 64.6° (Epoch: 12 July)

Date Brightness Start Highest point End Pass type
(mag) Time Alt. Az. Time Alt. Az. Time Alt. Az.
13 Jul 6.5 09:00:39 10° SSE 09:04:45 21° ESE 09:09:11 10° ENE visible
14 Jul 6.7 08:32:27 10° SE 08:35:28 15° ESE 08:38:39 10° ENE visible
15 Jul 4.4 09:43:48 10° SSW 09:49:19 63° WNW 09:55:31 10° NNE visible
16 Jul 4.3 09:14:44 12° SSW 09:19:54 88° WNW 09:26:11 10° NNE visible
17 Jul 4.5 08:46:58 23° S 08:50:31 67° ESE 08:56:42 10° NNE visible
18 Jul 5.0 08:19:09 33° SSE 08:21:11 47° ESE 08:27:05 10° NE visible
19 Jul 5.5 07:51:19 33° ESE 07:51:51 33° ESE 07:57:17 10° NE visible
19 Jul 5.7 09:32:11 14° WSW 09:35:37 22° WNW 09:40:19 10° NNW visible
20 Jul 6.2 07:23:25 23° E 07:23:25 23° E 07:27:17 10° ENE visible
20 Jul 5.2 09:04:17 25° W 09:06:05 30° WNW 09:11:31 10° N visible
21 Jul 6.8 06:55:28 14° E 06:55:28 14° E 06:56:54 10° ENE visible
21 Jul 4.7 08:36:19 41° WNW 08:36:36 42° WNW 08:42:31 10° N visible
22 Jul 4.8 08:08:19 49° NNW 08:08:19 49° NNW 08:13:20 10° NNE visible
